sat.trackr.live / text

‹ back to catalog

STARLINK-3685

NORAD 52115 · 2022-029AD

PAYLOAD ACTIVE UNKNOWN

§ Identity

Operator
Country
US
Launch date
2022-03-19
Launch site
AFETR
Launch vehicle
Mass (kg)
RCS (m²)

Purposes: comms

External: N2YO · Heavens-Above · Gunter

§ Orbital elements

Epoch: 2026-09-19T13:08:55.420224Z

Period
93.85 min
Inclination
53.1602°
Eccentricity
0.0001573
Mean motion
15.34387381 rev/d
Perigee alt
461.7 km
Apogee alt
463.8 km
Semi-major
6,840.9 km
B*
1.9146e-5
RAAN
272.0340°
Arg perigee
76.4081°
Mean anomaly
283.7097°
Rev number
25,028

§ Raw data

STARLINK-36851 52115U 22029AD  26262.54786366  .00000270  00000+0  19146-4 0  99952 52115  53.1602 272.0340 0001573  76.4081 283.7097 15.34387381250289

JSON: /api/v1/satellites/52115 · /tle

For live sub-satellite position, see the globe view (requires WebGL).

§ Visibility from observer

Set your observer location to see the next 7 days of passes ≥ 10°. The values pass through the URL so the page stays shareable.

No JS? Fill the form by hand. The geolocation button needs JavaScript.